PulseSat

PulseSat

GSAT0206 (GALILEO 10)

Last updated on Feb. 16, 2019, 3:04 a.m. UTC

1 40890U 15045B   19045.35297294  .00000001  00000-0  00000+0 0  9996
2 40890  56.5424 295.5360 0002897  16.3479 343.7262  1.70474555 21351
UTC
Height (km)
Latitude
Longitude
Inclination
Orbital Period

Next 30 passes for location: Hong Kong

Rise time Rise Azimuth (degrees) Set time Set Azimuth (degrees) Duration Max altitude (degrees)

No matching passes for this satellites

PulseSat

PulseSat is the new satellites software and hardware trackering solution by Pulsely.
Satellite Two Line Element Set source: US Air Force Space Command

Download PulseSat for iOS
© 2017 Pulsely Limited